Location: Les Jeannots
(43.2262°N, 5.5774°E)
Time: 02:35:38
(UTC+00:00)

Cosmos 2221 - Pass Details

Date: 05 July 2020
Orbit: 592 x 616 km, 82.5° (Epoch: 04 August)

Event Time Altitude Azimuth Distance (km) Brightness Sun altitude
Rises 22:32:01 0° 341° (NNW) 2,892 7.5 -22.1°
Reaches altitude 10° 22:34:26 10° 332° (NNW) 1,979 6.2 -22.3°
Maximum altitude 22:38:17 31° 270° (W) 1,074 3.9 -22.5°
Enters shadow 22:39:19 28° 243° (WSW) 1,159 3.8 -22.5°
